Location: Bailen
(14.1842°N, 120.7958°E)
Time: 17:04:08
(UTC+00:00)

Cosmos 1603 - Pass Details

Date: 12 January 2026
Orbit: 831 x 857 km, 71.0° (Epoch: 17 February)

Event Time Altitude Azimuth Distance (km) Brightness Sun altitude
Exits shadow 21:04:05 20° 337° (NNW) 1,842 5.1 -19.1°
Maximum altitude 21:08:04 76° 255° (WSW) 862 3.6 -18.2°
Drops below altitude 10° 21:13:40 10° 170° (S) 2,446 6.5 -16.9°
Sets 21:16:06 0° 168° (SSE) 3,384 7.3 -16.4°
